This is the latest recevied weather packets stored in our database for station/object SQ9SMC-13. If no packets are shown the sender has not sent any weather packets the latest 10 day(s).
| Time | Temp. | Humidity | Pressure | Rain* | Wind** | Luminosity | Snow |
|---|---|---|---|---|---|---|---|
| 1777795205 | 20° C | 40% | 1020.8 hPa | 0 mm | - | 477 W/m² | - |
| 1777794904 | 20° C | 40% | 1020.7 hPa | 0 mm | - | 467 W/m² | - |
| 1777794603 | 20° C | 40% | 1020.8 hPa | 0 mm | - | 456 W/m² | - |
| 1777794003 | 19.44° C | 41% | 1020.9 hPa | 0 mm | - | 434 W/m² | - |
| 1777793704 | 19.44° C | 42% | 1020.8 hPa | 0 mm | - | 421 W/m² | - |
| 1777793405 | 19.44° C | 42% | 1020.8 hPa | 0 mm | - | 411 W/m² | - |
| 1777793105 | 18.89° C | 43% | 1020.7 hPa | 0 mm | - | 400 W/m² | - |
| 1777792805 | 18.89° C | 43% | 1020.8 hPa | 0 mm | - | 390 W/m² | - |
| 1777792502 | 18.89° C | 43% | 1020.8 hPa | 0 mm | - | 379 W/m² | - |
| 1777792202 | 18.33° C | 44% | 1020.9 hPa | 0 mm | - | 367 W/m² | - |
| 1777791904 | 18.33° C | 44% | 1020.7 hPa | 0 mm | - | 357 W/m² | - |
| 1777791604 | 18.33° C | 44% | 1020.7 hPa | 0 mm | - | 346 W/m² | - |
| 1777791303 | 18.33° C | 45% | 1020.8 hPa | 0 mm | - | 336 W/m² | - |
| 1777791003 | 17.78° C | 46% | 1020.7 hPa | 0 mm | - | 323 W/m² | - |
| 1777790703 | 17.78° C | 46% | 1020.8 hPa | 0 mm | - | 310 W/m² | - |
| 1777790404 | 17.22° C | 46% | 1020.8 hPa | 0 mm | - | 296 W/m² | - |
| 1777790104 | 17.22° C | 46% | 1020.6 hPa | 0 mm | - | 286 W/m² | - |
| 1777789803 | 17.22° C | 47% | 1020.6 hPa | 0 mm | - | 272 W/m² | - |
| 1777789505 | 17.22° C | 47% | 1020.5 hPa | 0 mm | - | 260 W/m² | - |
| 1777789203 | 16.67° C | 47% | 1020.6 hPa | 0 mm | - | 248 W/m² | - |
| 1777788904 | 16.67° C | 47% | 1020.6 hPa | 0 mm | - | 237 W/m² | - |
| 1777788603 | 16.67° C | 47% | 1020.4 hPa | 0 mm | - | 226 W/m² | - |
| 1777788304 | 16.11° C | 48% | 1020.5 hPa | 0 mm | - | 215 W/m² | - |
| 1777788003 | 16.11° C | 48% | 1020.6 hPa | 0 mm | - | 202 W/m² | - |
| 1777787703 | 16.11° C | 48% | 1020.6 hPa | 0 mm | - | 192 W/m² | - |
* Rain latest hour (hover to see other rain measurements)
** Current wind speed in m/s (hover to see current wind gust speed)